This demonstration page uses our WeatherBlox Daily Observations layout. Learn more.

Left ArrowRight Arrow

Hourly Observations for September 28, 2018

Temp ( °F °C ) Dew Point ( °F °C ) Humidity (%) Winds ( mph kmh ) Pressure ( in mb ) Visibility ( mi km ) Precip ( " mm )
12:57 am 00:57 Clear 53 11.7 46 7.8 77 77 NNE 15 24 30.06 1018 10 16 0.00 0.00
1:57 am 01:57 Clear 51 10.6 45 7.2 80 80 NE 16 26 30.06 1018 10 16 0.00 0.00
2:57 am 02:57 Mostly Cloudy 51 10.6 43 6.1 74 74 NNE 15 24 30.10 1019 10 16 0.00 0.00
3:57 am 03:57 Mostly Cloudy 49 9.4 42 5.6 77 77 NNE 20 31 30.10 1019 10 16 0.00 0.00
4:22 am 04:22 Mostly Cloudy 48 9 39 4 71 71 NNE 17 28 30.18 1022 10 16 0.00 0.00
4:57 am 04:57 Cloudy 47 8.3 39 3.9 74 74 NNE 17 28 30.16 1022 10 16 0.00 0.00
5:57 am 05:57 Mostly Cloudy 46 7.8 39 3.9 77 77 NNE 17 28 30.18 1022 10 16 0.00 0.00
6:57 am 06:57 Mostly Cloudy 46 7.8 38 3.3 73 73 NNE 15 24 30.22 1023 10 16 0.00 0.00
7:57 am 07:57 Cloudy 46 7.8 37 2.8 71 71 NNE 15 24 30.25 1025 10 16 0.00 0.00
8:57 am 08:57 Cloudy 46 7.8 38 3.3 73 73 NNE 15 24 30.27 1025 10 16 0.00 0.00
9:51 am 09:51 Cloudy with Light Rain 46 8 37 3 71 71 NNE 17 28 30.30 1026 10 16 0.00 0.00
9:57 am 09:57 Cloudy 46 7.8 37 2.8 71 71 NNE 18 30 30.30 1026 10 16 0.00 0.03
10:40 am 10:40 Cloudy 46 8 37 3 71 71 NNE 17 28 30.33 1027 10 16 0.00 0.00
10:57 am 10:57 Cloudy 46 7.8 37 2.8 71 71 NNE 17 28 30.33 1027 10 16 0.00 0.00
11:32 am 11:32 Cloudy 46 8 37 3 71 71 NNE 18 30 30.33 1027 10 16 0.00 0.00
11:57 am 11:57 Cloudy 46 7.8 36 2.2 68 68 NNE 15 24 30.35 1028 10 16 0.00 0.00
12:30 pm 12:30 Cloudy 46 8 36 2 66 66 NE 16 26 30.36 1028 10 16 0.00 0.00
1:57 pm 13:57 Cloudy 48 8.9 37 2.8 66 66 NE 16 26 30.34 1028 10 16 0.00 0.00
2:09 pm 14:09 Cloudy 48 9 36 2 62 62 NE 14 22 30.33 1027 10 16 0.00 0.00
2:43 pm 14:43 Cloudy 48 9 37 3 66 66 NE 15 24 30.33 1027 10 16 0.00 0.00
2:57 pm 14:57 Cloudy 49 9.4 37 2.8 64 64 NE 14 22 30.32 1027 10 16 0.00 0.00
3:09 pm 15:09 Cloudy 48 9 37 3 66 66 NE 14 22 30.30 1026 10 16 0.00 0.00
3:57 pm 15:57 Cloudy 49 9.4 36 2.2 61 61 ENE 14 22 30.32 1027 10 16 0.00 0.00
4:57 pm 16:57 Cloudy 49 9.4 36 2.2 61 61 ENE 13 20 30.32 1027 10 16 0.00 0.00
5:57 pm 17:57 Cloudy 49 9.4 35 1.7 59 59 ENE 8 13 30.31 1027 10 16 0.00 0.00
6:57 pm 18:57 Sunny 48 8.9 35 1.7 61 61 NE 9 15 30.31 1027 10 16 0.00 0.00
7:57 pm 19:57 Cloudy 46 7.8 36 2.2 68 68 E 3 6 30.33 1027 10 16 0.00 0.00
8:57 pm 20:57 Cloudy 47 8.3 37 2.8 69 69 NE 3 6 30.33 1027 10 16 0.00 0.00
9:57 pm 21:57 Cloudy 47 8.3 36 2.2 66 66 NE 5 7 30.33 1027 10 16 0.00 0.00
10:57 pm 22:57 Cloudy 46 7.8 37 2.8 71 71 E 5 7 30.33 1027 10 16 0.00 0.00
11:57 pm 23:57 Cloudy 47 8.3 38 3.3 71 71 ESE 5 7 30.32 1027 10 16 0.00 0.00

Powered by AerisWeather